CW1575 Weather Reports


Display with metric or nautical units.
time (UTC)temp
F
wind
direction
speed
MPH
gust
MPH
rain 1hr
in
rain 24hr
in
rain mn
in
humidity
%
barometer
mb
20260510153004 58 0 1.0 5.0 0.00 0.00 0.00 61 1015.2
20260510152504 57 0 1.0 3.0 0.00 0.00 0.00 61 1015.0
20260510152004 57 0 3.0 9.0 0.00 0.00 0.00 61 1015.0
20260510151004 57 0 2.0 5.0 0.00 0.00 0.00 63 1015.0
20260510150504 56 0 1.0 3.0 0.00 0.00 0.00 65 1015.0
20260510150003 55 0 2.0 9.0 0.00 0.00 0.00 66 1015.1
20260510144503 53 0 1.0 3.0 0.00 0.00 0.00 72 1015.2
20260510144004 52 0 1.0 5.0 0.00 0.00 0.00 72 1015.2
20260510143504 52 0 2.0 3.0 0.00 0.00 0.00 75 1015.1
20260510143004 51 0 1.0 3.0 0.00 0.00 0.00 77 1015.2
20260510142503 50 0 0.0 2.0 0.00 0.00 0.00 79 1015.3
20260510142003 49 0 0.0 3.0 0.00 0.00 0.00 80 1015.3
20260510141503 49 0 0.0 2.0 0.00 0.00 0.00 81 1015.3
20260510141004 48 0 0.0 1.0 0.00 0.00 0.00 82 1015.3
20260510140504 48 0 0.0 2.0 0.00 0.00 0.00 82 1015.3
20260510140004 48 0 2.0 3.0 0.00 0.00 0.00 83 1015.3
20260510135004 47 0 0.0 2.0 0.00 0.00 0.00 83 1015.2
20260510134504 47 0 1.0 3.0 0.00 0.00 0.00 83 1015.4
20260510134004 47 0 0.0 2.0 0.00 0.00 0.00 83 1015.5
20260510133503 47 0 0.0 1.0 0.00 0.00 0.00 82 1015.5
20260510133004 47 0 0.0 1.0 0.00 0.00 0.00 82 1015.4
20260510132004 47 0 0.0 3.0 0.00 0.00 0.00 82 1015.5
20260510130504 47 0 0.0 3.0 0.00 0.00 0.00 82 1015.6
20260510130004 47 0 0.0 1.0 0.00 0.00 0.00 82 1015.6
20260510125503 47 0 2.0 5.0 0.00 0.00 0.00 82 1015.7
20260510125004 48 0 5.0 10.0 0.00 0.00 0.00 82 1015.7
20260510124503 48 0 2.0 6.0 0.00 0.00 0.00 82 1015.5
20260510124003 48 0 1.0 6.0 0.00 0.00 0.00 82 1015.5
20260510123504 48 0 0.0 2.0 0.00 0.00 0.00 81 1015.5
20260510123004 48 0 1.0 8.0 0.00 0.00 0.00 81 1015.4
20260510122503 48 0 3.0 6.0 0.00 0.00 0.00 80 1015.4
20260510122003 48 0 1.0 3.0 0.00 0.00 0.00 80 1015.4
20260510121503 48 0 0.0 0.0 0.00 0.00 0.00 80 1015.4
20260510121004 48 0 0.0 0.0 0.00 0.00 0.00 80 1015.4
20260510120504 48 0 0.0 0.0 0.00 0.00 0.00 80 1015.4
20260510120005 48 0 0.0 0.0 0.00 0.00 0.00 80 1015.2
20260510115505 48 0 0.0 1.0 0.00 0.00 0.00 80 1015.2
20260510115005 48 0 0.0 0.0 0.00 0.00 0.00 80 1015.1
20260510114005 48 0 0.0 1.0 0.00 0.00 0.00 80 1014.9
20260510113505 48 0 0.0 1.0 0.00 0.00 0.00 79 1014.9
20260510113006 48 0 0.0 1.0 0.00 0.00 0.00 79 1015.0
20260510112505 48 0 0.0 1.0 0.00 0.00 0.00 79 1014.8
20260510112005 48 0 0.0 0.0 0.00 0.00 0.00 79 1014.9
20260510111504 48 0 0.0 1.0 0.00 0.00 0.00 79 1014.9
20260510111006 48 0 0.0 0.0 0.00 0.00 0.00 78 1015.0
20260510110005 48 0 1.0 3.0 0.00 0.00 0.00 78 1014.8
20260510105505 48 0 0.0 2.0 0.00 0.00 0.00 78 1014.7
20260510105005 48 0 0.0 2.0 0.00 0.00 0.00 77 1014.6
20260510104505 48 0 0.0 3.0 0.00 0.00 0.00 77 1014.5
20260510104005 48 0 0.0 3.0 0.00 0.00 0.00 77 1014.4
20260510103005 48 0 1.0 3.0 0.00 0.00 0.00 76 1014.3
20260510102505 48 0 0.0 0.0 0.00 0.00 0.00 76 1014.3
20260510102005 48 0 1.0 3.0 0.00 0.00 0.00 75 1014.3
20260510101504 48 0 1.0 5.0 0.00 0.00 0.00 75 1014.3
20260510100505 49 0 1.0 5.0 0.00 0.00 0.00 74 1014.2
20260510100005 49 0 0.0 3.0 0.00 0.00 0.00 74 1014.2
20260510095505 49 0 2.0 6.0 0.00 0.00 0.00 72 1014.2
20260510095005 49 0 0.0 3.0 0.00 0.00 0.00 71 1014.2
20260510094505 49 0 0.0 3.0 0.00 0.00 0.00 70 1014.2
20260510094005 49 0 1.0 3.0 0.00 0.00 0.00 70 1014.2
20260510093505 49 0 0.0 2.0 0.00 0.00 0.00 70 1014.1
20260510093005 49 0 1.0 3.0 0.00 0.00 0.00 70 1014.2
20260510092505 49 0 0.0 1.0 0.00 0.00 0.00 70 1014.2
20260510092005 49 0 1.0 3.0 0.00 0.00 0.00 70 1014.1
20260510091505 49 0 2.0 3.0 0.00 0.00 0.00 70 1014.1
20260510091005 49 0 0.0 2.0 0.00 0.00 0.00 70 1014.0
20260510090505 49 0 0.0 2.0 0.00 0.00 0.00 70 1014.0
20260510090005 49 0 0.0 0.0 0.00 0.00 0.00 70 1014.0
20260510085505 49 0 0.0 1.0 0.00 0.00 0.00 70 1013.8
20260510085005 49 0 0.0 0.0 0.00 0.00 0.00 70 1013.9
20260510084504 49 0 0.0 1.0 0.00 0.00 0.00 70 1013.7
20260510084005 49 0 0.0 2.0 0.00 0.00 0.00 70 1013.7
20260510083504 49 0 0.0 0.0 0.00 0.00 0.00 70 1013.7
20260510082504 49 0 0.0 0.0 0.00 0.00 0.00 70 1013.6
20260510082006 49 0 0.0 0.0 0.00 0.00 0.00 70 1013.6
20260510081505 49 0 0.0 0.0 0.00 0.00 0.00 70 1013.6
20260510081005 49 0 0.0 0.0 0.00 0.00 0.00 70 1013.6
20260510080005 49 0 0.0 1.0 0.00 0.00 0.00 70 1013.6
20260510075505 49 0 0.0 0.0 0.00 0.00 0.00 70 1013.6
20260510075005 49 0 0.0 0.0 0.00 0.00 0.00 71 1013.7
20260510074505 49 0 0.0 0.0 0.00 0.00 0.00 71 1013.7
20260510074005 49 0 0.0 0.0 0.00 0.00 0.00 72 1013.7
20260510072505 49 0 0.0 1.0 0.00 0.00 0.00 74 1013.9
20260510072005 49 0 0.0 1.0 0.00 0.00 0.00 74 1013.8
20260510071504 49 0 0.0 0.0 0.00 0.00 0.00 74 1013.8
20260510071004 49 0 0.0 2.0 0.00 0.00 0.00 74 1013.8
20260510070505 49 0 0.0 1.0 0.00 0.00 0.00 73 1013.8
20260510070005 49 0 0.0 0.0 0.00 0.00 0.00 73 1013.7
20260510065505 49 0 0.0 1.0 0.00 0.00 0.00 73 1013.7
20260510064505 49 0 0.0 1.0 0.00 0.00 0.00 73 1013.8
20260510064005 49 0 0.0 1.0 0.00 0.00 0.00 73 1013.6
20260510063005 49 0 0.0 3.0 0.00 0.00 0.00 73 1013.6
20260510062504 49 0 1.0 3.0 0.00 0.00 0.00 73 1013.6
20260510062005 49 0 0.0 0.0 0.00 0.00 0.00 73 1013.6
20260510061504 49 0 0.0 0.0 0.00 0.00 0.00 73 1013.5
20260510061006 49 0 0.0 0.0 0.00 0.00 0.00 72 1013.6
20260510060006 49 0 0.0 1.0 0.00 0.00 0.00 72 1013.6
20260510055505 50 0 0.0 1.0 0.00 0.00 0.00 72 1013.4
20260510055005 50 0 0.0 1.0 0.00 0.00 0.00 72 1013.5
20260510054504 49 0 0.0 2.0 0.00 0.00 0.00 72 1013.4
20260510054005 49 0 0.0 1.0 0.00 0.00 0.00 72 1013.4
20260510053505 49 0 0.0 2.0 0.00 0.00 0.00 72 1013.4
20260510053005 50 0 1.0 2.0 0.00 0.00 0.00 72 1013.4
20260510052505 50 0 0.0 1.0 0.00 0.00 0.00 72 1013.3
20260510052005 50 0 0.0 1.0 0.00 0.00 0.00 72 1013.3
20260510051504 50 0 1.0 3.0 0.00 0.00 0.00 72 1013.4
20260510051005 50 0 2.0 3.0 0.00 0.00 0.00 72 1013.4
20260510050504 50 0 0.0 3.0 0.00 0.00 0.00 72 1013.7
20260510050005 50 0 0.0 1.0 0.00 0.00 0.00 72 1013.9
20260510045504 50 0 1.0 5.0 0.00 0.00 0.00 71 1013.9
20260510045004 50 0 1.0 6.0 0.00 0.00 0.00 71 1013.7
20260510044504 50 0 1.0 5.0 0.00 0.00 0.00 70 1013.6
20260510044005 50 0 2.0 8.0 0.00 0.00 0.00 70 1013.7
20260510043505 50 0 2.0 9.0 0.00 0.00 0.00 70 1013.6
20260510043005 50 0 1.0 3.0 0.00 0.00 0.00 70 1013.5
20260510042504 50 0 3.0 8.0 0.00 0.00 0.00 70 1013.7
20260510042005 51 0 1.0 5.0 0.00 0.00 0.00 70 1013.7
20260510041505 51 0 3.0 12.0 0.00 0.00 0.00 69 1013.5
20260510041004 51 0 3.0 12.0 0.00 0.00 0.00 68 1013.5
20260510040505 51 0 2.0 10.0 0.00 0.00 0.00 68 1013.5
20260510040005 51 0 2.0 12.0 0.00 0.00 0.00 68 1013.4
20260510035005 51 0 4.0 12.0 0.00 0.00 0.00 66 1013.0
20260510034504 51 0 5.0 15.0 0.00 0.00 0.00 66 1013.1
20260510034005 51 0 4.0 14.0 0.00 0.00 0.00 65 1013.2
20260510033504 51 0 6.0 13.0 0.00 0.00 0.00 65 1013.2
20260510033005 51 0 6.0 14.0 0.00 0.00 0.00 65 1013.1
20260510032504 51 0 4.0 8.0 0.00 0.00 0.00 66 1013.1
20260510032005 51 0 2.0 9.0 0.00 0.00 0.00 65 1013.1
20260510031004 52 0 5.0 12.0 0.00 0.00 0.00 66 1012.7
20260510030505 52 0 5.0 12.0 0.00 0.00 0.00 66 1012.4
20260510030005 52 0 4.0 16.0 0.00 0.00 0.00 66 1012.1
20260510025504 52 0 4.0 13.0 0.00 0.00 0.00 66 1011.7
20260510025005 52 0 5.0 12.0 0.00 0.00 0.00 66 1011.2
20260510024506 52 0 6.0 17.0 0.00 0.00 0.00 65 1010.9
20260510024005 53 0 7.0 20.0 0.00 0.00 0.00 65 1010.6
20260510023505 53 0 5.0 20.0 0.00 0.00 0.00 65 1010.4
20260510023005 53 0 12.0 22.0 0.00 0.00 0.00 64 1010.2
20260510022504 53 0 5.0 14.0 0.00 0.00 0.00 65 1009.7
20260510022004 54 0 10.0 18.0 0.00 0.00 0.00 64 1009.5
20260510021005 54 0 7.0 18.0 0.00 0.00 0.00 63 1009.0
20260510020504 55 0 10.0 23.0 0.00 0.00 0.00 62 1008.7
20260510015504 56 0 8.0 13.0 0.00 0.00 0.00 60 1008.1
20260510015005 56 0 10.0 20.0 0.00 0.00 0.00 58 1008.1
20260510014505 57 0 9.0 20.0 0.00 0.00 0.00 57 1008.1
20260510014004 58 0 10.0 16.0 0.00 0.00 0.00 55 1007.8
20260510013505 58 0 6.0 15.0 0.00 0.00 0.00 53 1007.4
20260510013005 59 0 7.0 20.0 0.00 0.00 0.00 51 1006.8
20260510012505 60 0 10.0 26.0 0.00 0.00 0.00 49 1006.7
20260510011004 64 0 9.0 21.0 0.00 0.00 0.00 43 1006.0
20260509194504 80 34 5.0 9.0 0.00 0.00 0.00 22 1002.5
20260509193503 79 344 2.0 7.0 0.00 0.00 0.00 21 1002.4
20260509193004 79 24 5.0 10.0 0.00 0.00 0.00 22 1002.4
20260509192504 79 0 5.0 12.0 0.00 0.00 0.00 23 1002.6
20260509192004 79 0 4.0 8.0 0.00 0.00 0.00 24 1002.6
20260509191504 79 0 1.0 5.0 0.00 0.00 0.00 23 1002.7
20260509191004 79 0 5.0 10.0 0.00 0.00 0.00 24 1002.8
20260509190504 78 0 3.0 9.0 0.00 0.00 0.00 24 1002.8
20260509190004 78 0 2.0 13.0 0.00 0.00 0.00 23 1002.9
20260509185504 78 0 8.0 15.0 0.00 0.00 0.00 23 1002.9
20260509185004 78 0 2.0 8.0 0.00 0.00 0.00 24 1003.2
20260509184504 77 0 2.0 8.0 0.00 0.00 0.00 24 1003.2
20260509184004 77 0 2.0 8.0 0.00 0.00 0.00 25 1003.2
20260509183504 77 0 4.0 10.0 0.00 0.00 0.00 25 1003.3
20260509183004 77 0 7.0 15.0 0.00 0.00 0.00 25 1003.3
20260509182503 77 0 7.0 16.0 0.00 0.00 0.00 25 1003.3
20260509182004 77 0 9.0 15.0 0.00 0.00 0.00 25 1003.2
20260509181505 78 0 2.0 6.0 0.00 0.00 0.00 25 1003.2
20260509181004 78 0 2.0 7.0 0.00 0.00 0.00 22 1003.2
20260509180004 78 62 1.0 7.0 0.00 0.00 0.00 21 1003.2
20260509175504 78 119 2.0 6.0 0.00 0.00 0.00 18 1003.2
20260509175004 79 13 2.0 8.0 0.00 0.00 0.00 19 1003.2
20260509174504 79 2 2.0 5.0 0.00 0.00 0.00 18 1003.3
20260509174004 79 60 2.0 7.0 0.00 0.00 0.00 20 1003.3
20260509173504 79 332 2.0 9.0 0.00 0.00 0.00 20 1003.3
20260509173004 78 0 2.0 9.0 0.00 0.00 0.00 20 1003.4
20260509172504 78 0 4.0 10.0 0.00 0.00 0.00 19 1003.3
20260509172003 78 0 2.0 6.0 0.00 0.00 0.00 20 1003.4
20260509171504 77 0 3.0 13.0 0.00 0.00 0.00 23 1003.4
20260509171004 77 0 3.0 10.0 0.00 0.00 0.00 21 1003.3
20260509170504 77 0 5.0 9.0 0.00 0.00 0.00 21 1003.5
20260509170004 77 0 2.0 9.0 0.00 0.00 0.00 20 1003.4
20260509164504 76 0 4.0 10.0 0.00 0.00 0.00 23 1003.6
20260509164004 76 0 3.0 10.0 0.00 0.00 0.00 22 1003.7
20260509163504 76 0 1.0 8.0 0.00 0.00 0.00 22 1003.7
20260509163004 76 5 1.0 3.0 0.00 0.00 0.00 24 1003.8
20260509162503 75 40 2.0 5.0 0.00 0.00 0.00 25 1003.7
20260509162004 75 0 2.0 5.0 0.00 0.00 0.00 22 1003.9
20260509161504 75 0 1.0 3.0 0.00 0.00 0.00 20 1003.9
20260509161004 74 337 3.0 12.0 0.00 0.00 0.00 21 1004.0
20260509160003 73 1 0.0 3.0 0.00 0.00 0.00 22 1004.1
20260509155504 72 216 1.0 6.0 0.00 0.00 0.00 20 1004.2
20260509155003 72 319 2.0 3.0 0.00 0.00 0.00 20 1004.1
20260509154504 71 0 0.0 2.0 0.00 0.00 0.00 23 1004.2
20260509153504 70 0 1.0 3.0 0.00 0.00 0.00 22 1004.1